Regional Weather Roundup
Issued by NWS

Home | Current Version | Previous Version | Text Only | Print | Product List | Glossary Off
Versions: 1 2 3 4 5 6 7 8 9 10 11 12 13 14 15 16 17 18 19 20 21 22 23 24 25 26 27 28 29 30 31 32 33 34 35 36 37 38 39 40 41 42 43 44 45 46 47 48 49 50

000
ASUS43 KMPX 160801
RWRMN
WEATHER ROUNDUP FOR MINNESOTA
NATIONAL WEATHER SERVICE TWIN CITIES/CHANHASSEN MN
300 AM CDT TUE SEP 16 2014


NOTE: "FAIR" INDICATES FEW OR NO CLOUDS BELOW 12,000 FEET WITH NO
SIGNIFICANT WEATHER AND/OR OBSTRUCTIONS TO VISIBILITY. N/A MEANS
CURRENT SKY AND/OR WEATHER CONDITIONS ARE NOT AVAILABLE.

MNZ060>063-068>070-160900-
   Twin Cities Metro

CITY           SKY/WX    TMP DP  RH WIND       PRES   REMARKS
TWIN CITIES    CLEAR     45  41  86 S3        30.21S
ST PAUL        CLEAR     43  41  93 CALM      30.22S
CRYSTAL        CLEAR     44  40  85 CALM      30.19S
BLAINE         CLEAR     45  43  93 S3        30.20S
LAKEVILLE      CLEAR     37  36  93 CALM      30.21F
EDEN PRAIRIE   CLEAR     42  41  96 SW3       30.20F
SOUTH ST PAUL  CLEAR     43  40  89 CALM      30.22R
LAKE ELMO      FAIR      41  39  93 CALM      30.21S
$$
MNZ001>005-007-008-013>017-022>024-027-028-160900-
   Northwest Minnesota

CITY           SKY/WX    TMP DP  RH WIND       PRES   REMARKS
BEMIDJI        CLEAR     45  38  76 SW6       30.10S
HALLOCK        PTCLDY    43  39  87 S7        30.01F
ROSEAU         CLOUDY    48  41  76 SW10      30.01F
WARROAD        CLOUDY    48  41  76 SW9       30.01F
THIEF RVR FALL CLEAR     45  39  81 SW10      30.07S
CROOKSTON      CLEAR     43  39  87 S7        30.08S
FOSSTON        CLEAR     39  36  87 S9        30.10F
DETROIT LAKES  CLEAR     46  37  71 SW7       30.14S
MOORHEAD       CLEAR     45  41  87 S3        30.13F
PARK RAPIDS    CLEAR     42  37  82 SW7       30.13S
MAHNOMEN       FAIR      41  37  86 S8        30.11S
$$
MNZ006-009>011-018-025>026-160900-
   North Central Minnesota

CITY           SKY/WX    TMP DP  RH WIND       PRES   REMARKS
BAUDETTE       CLEAR     42  38  85 SW7       30.02F
FLAG ISLAND    CLEAR     48  41  76 SW15      29.96S
INTL FALLS     CLEAR     39  37  92 SW7       30.02F
WASKISH        CLEAR     52  45  76 CALM      30.05F
BIG FORK       CLEAR     43  37  81 SW7       30.08S
LONGVILLE      CLEAR     46  39  76 SW7       30.12S
GRAND RAPIDS   CLEAR     48  34  57 SW9       30.10S
CRANE LAKE     CLEAR     43  39  87 S3        30.05F
ORR            CLEAR     43  36  75 CALM      30.04S
COOK           CLEAR     45  37  76 SW9       30.07S
WALKER         FAIR      46  38  72 SW6       30.11S
$$
MNZ012-019>021-037-160900-
   Northeast Minnesota

CITY           SKY/WX    TMP DP  RH WIND       PRES   REMARKS
DULUTH         CLEAR     46  36  68 W14       30.11F
ELY            MOCLDY    45  36  70 SW7       30.06F
HIBBING        CLEAR     31  28  89 CALM      30.09F
EVELETH        CLEAR     36  34  93 SW3       30.10S
DULUTH HARBOR  CLEAR     46  39  76 SW14      30.13S
TWO HARBORS    CLEAR     43  36  75 W7        30.09S
SILVER BAY     CLEAR     34  34 100 CALM      30.08S
GRAND MARAIS     N/A     50  40  68 SW14G21   30.07S
G MARAIS ARPRT CLEAR     39  32  75 W6        30.06F
$$
MNZ029>031-032-039>041-046>048-054>057-064-160900-
   West Central Minnesota

CITY           SKY/WX    TMP DP  RH WIND       PRES   REMARKS
FERGUS FALLS   CLEAR     43  36  75 S7        30.17S
WHEATON        CLEAR     43  36  75 SW8       30.18F
MORRIS         CLEAR     39  36  87 S6        30.17F
ALEXANDRIA     CLEAR     45  36  70 SW10      30.19S
ELBOW LAKE     FAIR      39  36  87 S7        30.17S
WADENA         PTCLDY    37  36  93 CALM      30.15S
GLENWOOD       CLEAR     39  36  87 SW5       30.19F
APPLETON       CLEAR     39  36  87 CALM      30.19F
BENSON         CLEAR     39  36  87 SW3       30.20S
ORTONVILLE     CLEAR     43  36  75 SW6         N/A
MADISON        CLEAR     43  39  87 S6        30.19F
WILLMAR        FAIR      41  36  81 CALM      30.21F
$$
MNZ033>034-036-042>043-049>051-058-059-160900-
   Central Minnesota

CITY           SKY/WX    TMP DP  RH WIND       PRES   REMARKS
ST CLOUD       CLEAR     43  38  82 CALM      30.19S
SAUK CENTRE    FAIR      39  35  85 CALM      30.19S
PAYNESVILLE    CLEAR     37  37 100 SW5       30.20F
AITKIN         CLEAR     45  37  76 SW5       30.13S
PINE RIVER     CLEAR     45  36  70 SW3       30.17S
BRAINERD       CLEAR     41  35  79 S5        30.16S
STAPLES        CLEAR     43  36  75 SW5       30.15F
LONG PRAIRIE   FAIR      41  36  81 S7        30.18F
LITTLE FALLS   CLEAR     39  36  87 CALM      30.17F
LITCHFIELD     CLEAR     43  43 100 CALM      30.21S
BUFFALO        CLEAR     40  38  91 CALM      30.21S
MAPLE LAKE     CLEAR     39  39  99 CALM      30.21S
$$
MNZ037-044-045-052-053-160900-
   East Central Minnesota

CITY           SKY/WX    TMP DP  RH WIND       PRES   REMARKS
PRINCETON      CLEAR     39  37  93 CALM      30.19S
MORA           CLEAR     36  34  93 CALM      30.19F
CAMBRIDGE      CLEAR     43  36  75 CALM      30.17S
RUSH CITY      CLEAR     40  37  91 CALM      30.18F
MOOSE LAKE     CLEAR     34  34 100 W3        30.13F
HINCKLEY       FAIR      37  36  93 CALM      30.17S
CLOQUET        CLEAR     43  37  81 SW6       30.13S
MCGREGOR       CLEAR     43  36  75 SW6       30.14F
$$
MNZ071>073-080-081-089-090-097-098-160900-
   Southwest Minnesota

CITY           SKY/WX    TMP DP  RH WIND       PRES   REMARKS
MONTEVIDEO     CLEAR     43  36  75 W6        30.21F
GRANITE FALLS  CLEAR     38  36  92 S6        30.22F
CANBY          CLEAR     46  39  77 SW3       30.21F
MARSHALL       CLEAR     43  36  75 SW10      30.21S
REDWOOD FALLS  CLEAR     43  37  79 SW7       30.22S
OLIVIA         CLEAR     39  36  87 SW6       30.21S
PIPESTONE      CLEAR     45 N/A N/A S3          N/A
WINDOM         CLEAR     39  37  93 CALM      30.24S
WORTHINGTON    CLEAR     41  37  87 SW5       30.25S
JACKSON        CLEAR     41  37  87 SW3       30.25S
TRACY          CLEAR     45  42  89 CALM      30.23S
SLAYTON        CLEAR     40  38  93 CALM      30.24S
$$
MNZ065>067-074>077-082>085-091>093-160900-
   South Central Minnesota

CITY           SKY/WX    TMP DP  RH WIND       PRES   REMARKS
MANKATO        CLEAR     43  36  75 S3        30.22F
NEW ULM        CLEAR     39  39 100 SW3       30.22F
ST JAMES       CLEAR     43  37  81 SW3       30.24F
FAIRMONT       CLEAR     43  36  75 SW3       30.24S
GLENCOE        CLEAR     40  37  88 CALM      30.20F
FARIBAULT      CLEAR     39  34  81 CALM      30.23S
OWATONNA       CLEAR     39  37  93 CALM      30.23S
WASECA         CLEAR     36  32  87 CALM      30.25S
ALBERT LEA     CLEAR     41  41 100 CALM      30.24S
$$
MNZ078>079-086>088-094>096-160900-
   Southeast Minnesota

CITY           SKY/WX    TMP DP  RH WIND       PRES   REMARKS
ROCHESTER      CLEAR     41  36  82 SW7       30.23S
RED WING       CLEAR     37  37 100 CALM      30.21F
STANTON        CLEAR     38  37  92 CALM      30.21S
DODGE CENTER   CLEAR     39  37  93 SW5       30.23S
WINONA         CLEAR     41  41 100 CALM      30.23S
AUSTIN         CLEAR     39  37  93 CALM      30.23F FOG
PRESTON        CLEAR     41  41  99 CALM      30.24R
$$
ABBREVIATIONS USED IN REMARKS
   TC - TEMPERATURES IN CELSIUS
  WCI - WIND CHILL INDEX
   HX - HEAT INDEX
  VSB - VISIBILITY
$$


USA.gov is the U.S. government's official web portal to all federal, state and local government web resources and services.